Location: Recife
(8.0585°S, 34.8848°W)
Time: 20:57:41
(UTC-03:00)

A-11 Canister half - Pass Details

Date: 18 April 2026
Orbit: 1523 x 1684 km, 47.3° (Epoch: 16 May)

Event Time Altitude Azimuth Distance (km) Brightness Sun altitude
Rises 17:54:44 0° 200° (SSW) 4,701 11.7 -10.3°
Reaches altitude 10° 17:58:47 10° 185° (S) 3,735 11.0 -11.3°
Maximum altitude 18:05:40 22° 137° (SE) 2,931 10.0 -13.0°
Enters shadow 18:09:44 17° 106° (ESE) 3,268 10.1 -13.9°
Drops below altitude 10° 18:12:38 10° 90° (E) 3,815 - -14.7°
Sets 18:16:46 0° 76° (ENE) 4,826 - -15.7°
